Year,Month,Day,Hour,Minute,Value (Times are PST for barometer in hPa)
2019,02,14,00,00,998.93
2019,02,14,00,01,998.92
2019,02,14,00,02,998.92
2019,02,14,00,03,998.92
2019,02,14,00,04,998.92
2019,02,14,00,05,998.92
2019,02,14,00,06,998.92
2019,02,14,00,07,998.92
2019,02,14,00,08,998.92
2019,02,14,00,09,998.92
2019,02,14,00,10,998.92
2019,02,14,00,11,998.92
2019,02,14,00,12,998.92
2019,02,14,00,13,998.92
2019,02,14,00,14,998.91
2019,02,14,00,15,998.78
2019,02,14,00,16,998.78
2019,02,14,00,17,998.78
2019,02,14,00,18,998.78
2019,02,14,00,19,998.78
2019,02,14,00,20,998.78
2019,02,14,00,21,998.78
2019,02,14,00,22,998.78
2019,02,14,00,23,998.78
2019,02,14,00,24,998.78
2019,02,14,00,25,998.78
2019,02,14,00,26,998.78
2019,02,14,00,27,998.78
2019,02,14,00,28,998.78
2019,02,14,00,29,998.76
2019,02,14,00,30,998.34
2019,02,14,00,31,998.34
2019,02,14,00,32,998.34
2019,02,14,00,33,998.34
2019,02,14,00,34,998.34
2019,02,14,00,35,998.34
2019,02,14,00,36,998.34
2019,02,14,00,37,998.34
2019,02,14,00,38,998.34
2019,02,14,00,39,998.34
2019,02,14,00,40,998.34
2019,02,14,00,41,998.34
2019,02,14,00,42,998.34
2019,02,14,00,43,998.34
2019,02,14,00,44,998.34
2019,02,14,00,45,998.34
2019,02,14,00,46,998.34
2019,02,14,00,47,998.34
2019,02,14,00,48,998.34
2019,02,14,00,49,998.34
2019,02,14,00,50,998.34
2019,02,14,00,51,998.34
2019,02,14,00,52,998.34
2019,02,14,00,53,998.34
2019,02,14,00,54,998.34
2019,02,14,00,55,998.34
2019,02,14,00,56,998.34
2019,02,14,00,57,998.34
2019,02,14,00,58,998.34
2019,02,14,00,59,998.34
2019,02,14,01,00,998.27
2019,02,14,01,01,998.27
2019,02,14,01,02,998.27
2019,02,14,01,03,998.27
2019,02,14,01,04,998.27
2019,02,14,01,05,998.27
2019,02,14,01,06,998.27
2019,02,14,01,07,998.27
2019,02,14,01,08,998.27
2019,02,14,01,09,998.27
2019,02,14,01,10,998.27
2019,02,14,01,11,998.27
2019,02,14,01,12,998.27
2019,02,14,01,13,998.27
2019,02,14,01,14,998.25
2019,02,14,01,15,997.90
2019,02,14,01,16,997.90
2019,02,14,01,17,997.90
2019,02,14,01,18,997.90
2019,02,14,01,19,997.90
2019,02,14,01,20,997.90
2019,02,14,01,21,997.90
2019,02,14,01,22,997.90
2019,02,14,01,23,997.90
2019,02,14,01,24,997.90
2019,02,14,01,25,997.90
2019,02,14,01,26,997.90
2019,02,14,01,27,997.90
2019,02,14,01,28,997.90
2019,02,14,01,29,997.89
2019,02,14,01,30,997.70
2019,02,14,01,31,997.70
2019,02,14,01,32,997.70
2019,02,14,01,33,997.70
2019,02,14,01,34,997.70
2019,02,14,01,35,997.70
2019,02,14,01,36,997.70
2019,02,14,01,37,997.70
2019,02,14,01,38,997.70
2019,02,14,01,39,997.70
2019,02,14,01,40,997.70
2019,02,14,01,41,997.70
2019,02,14,01,42,997.70
2019,02,14,01,43,997.70
2019,02,14,01,44,997.68
2019,02,14,01,45,997.29
2019,02,14,01,46,997.29
2019,02,14,01,47,997.29
2019,02,14,01,48,997.29
2019,02,14,01,49,997.29
2019,02,14,01,50,997.29
2019,02,14,01,51,997.29
2019,02,14,01,52,997.29
2019,02,14,01,53,997.29
2019,02,14,01,54,997.29
2019,02,14,01,55,997.29
2019,02,14,01,56,997.29
2019,02,14,01,57,997.29
2019,02,14,01,58,997.29
2019,02,14,01,59,997.27
2019,02,14,02,00,996.85
2019,02,14,02,01,996.85
2019,02,14,02,02,996.85
2019,02,14,02,03,996.85
2019,02,14,02,04,996.85
2019,02,14,02,05,996.85
2019,02,14,02,06,996.85
2019,02,14,02,07,996.85
2019,02,14,02,08,996.85
2019,02,14,02,09,996.85
2019,02,14,02,10,996.85
2019,02,14,02,11,996.85
2019,02,14,02,12,996.85
2019,02,14,02,13,996.85
2019,02,14,02,14,996.85
2019,02,14,02,15,996.89
2019,02,14,02,16,996.89
2019,02,14,02,17,996.89
2019,02,14,02,18,996.89
2019,02,14,02,19,996.89
2019,02,14,02,20,996.89
2019,02,14,02,21,996.89
2019,02,14,02,22,996.89
2019,02,14,02,23,996.89
2019,02,14,02,24,996.89
2019,02,14,02,25,996.89
2019,02,14,02,26,996.89
2019,02,14,02,27,996.89
2019,02,14,02,28,996.89
2019,02,14,02,29,996.88
2019,02,14,02,30,996.61
2019,02,14,02,31,996.61
2019,02,14,02,32,996.61
2019,02,14,02,33,996.61
2019,02,14,02,34,996.61
2019,02,14,02,35,996.61
2019,02,14,02,36,996.61
2019,02,14,02,37,996.61
2019,02,14,02,38,996.61
2019,02,14,02,39,996.61
2019,02,14,02,40,996.61
2019,02,14,02,41,996.61
2019,02,14,02,42,996.61
2019,02,14,02,43,996.61
2019,02,14,02,44,996.59
2019,02,14,02,45,996.21
2019,02,14,02,46,996.21
2019,02,14,02,47,996.21
2019,02,14,02,48,996.21
2019,02,14,02,49,996.21
2019,02,14,02,50,996.21
2019,02,14,02,51,996.21
2019,02,14,02,52,996.21
2019,02,14,02,53,996.21
2019,02,14,02,54,996.21
2019,02,14,02,55,996.21
2019,02,14,02,56,996.21
2019,02,14,02,57,996.21
2019,02,14,02,58,996.21
2019,02,14,02,59,996.21
2019,02,14,03,00,996.21
2019,02,14,03,01,996.21
2019,02,14,03,02,996.21
2019,02,14,03,03,996.21
2019,02,14,03,04,996.21
2019,02,14,03,05,996.21
2019,02,14,03,06,996.21
2019,02,14,03,07,996.21
2019,02,14,03,08,996.21
2019,02,14,03,09,996.21
2019,02,14,03,10,996.21
2019,02,14,03,11,996.21
2019,02,14,03,12,996.21
2019,02,14,03,13,996.21
2019,02,14,03,14,996.19
2019,02,14,03,15,995.73
2019,02,14,03,16,995.73
2019,02,14,03,17,995.73
2019,02,14,03,18,995.73
2019,02,14,03,19,995.73
2019,02,14,03,20,995.73
2019,02,14,03,21,995.73
2019,02,14,03,22,995.73
2019,02,14,03,23,995.73
2019,02,14,03,24,995.73
2019,02,14,03,25,995.73
2019,02,14,03,26,995.73
2019,02,14,03,27,995.73
2019,02,14,03,28,995.73
2019,02,14,03,29,995.73
2019,02,14,03,30,995.60
2019,02,14,03,31,995.60
2019,02,14,03,32,995.60
2019,02,14,03,33,995.60
2019,02,14,03,34,995.60
2019,02,14,03,35,995.60
2019,02,14,03,36,995.60
2019,02,14,03,37,995.60
2019,02,14,03,38,995.60
2019,02,14,03,39,995.60
2019,02,14,03,40,995.60
2019,02,14,03,41,995.60
2019,02,14,03,42,995.60
2019,02,14,03,43,995.60
2019,02,14,03,44,995.58
2019,02,14,03,45,995.19
2019,02,14,03,46,995.19
2019,02,14,03,47,995.19
2019,02,14,03,48,995.19
2019,02,14,03,49,995.19
2019,02,14,03,50,995.19
2019,02,14,03,51,995.19
2019,02,14,03,52,995.19
2019,02,14,03,53,995.19
2019,02,14,03,54,995.19
2019,02,14,03,55,995.19
2019,02,14,03,56,995.19
2019,02,14,03,57,995.19
2019,02,14,03,58,995.19
2019,02,14,03,59,995.19
2019,02,14,04,00,995.16
2019,02,14,04,01,995.16
2019,02,14,04,02,995.16
2019,02,14,04,03,995.16
2019,02,14,04,04,995.16
2019,02,14,04,05,995.16
2019,02,14,04,06,995.16
2019,02,14,04,07,995.16
2019,02,14,04,08,995.16
2019,02,14,04,09,995.16
2019,02,14,04,10,995.16
2019,02,14,04,11,995.16
2019,02,14,04,12,995.16
2019,02,14,04,13,995.16
2019,02,14,04,14,995.16
2019,02,14,04,15,995.06
2019,02,14,04,16,995.06
2019,02,14,04,17,995.06
2019,02,14,04,18,995.06
2019,02,14,04,19,995.06
2019,02,14,04,20,995.06
2019,02,14,04,21,995.06
2019,02,14,04,22,995.06
2019,02,14,04,23,995.06
2019,02,14,04,24,995.06
2019,02,14,04,25,995.06
2019,02,14,04,26,995.06
2019,02,14,04,27,995.06
2019,02,14,04,28,995.06
2019,02,14,04,29,995.06
2019,02,14,04,30,994.62
2019,02,14,04,31,994.62
2019,02,14,04,32,994.62
2019,02,14,04,33,994.62
2019,02,14,04,34,994.62
2019,02,14,04,35,994.62
2019,02,14,04,36,994.62
2019,02,14,04,37,994.62
2019,02,14,04,38,994.62
2019,02,14,04,39,994.62
2019,02,14,04,40,994.62
2019,02,14,04,41,994.62
2019,02,14,04,42,994.62
2019,02,14,04,43,994.62
2019,02,14,04,44,994.62
2019,02,14,04,45,994.55
2019,02,14,04,46,994.55
2019,02,14,04,47,994.55
2019,02,14,04,48,994.55
2019,02,14,04,49,994.55
2019,02,14,04,50,994.55
2019,02,14,04,51,994.55
2019,02,14,04,52,994.55
2019,02,14,04,53,994.55
2019,02,14,04,54,994.55
2019,02,14,04,55,994.55
2019,02,14,04,56,994.55
2019,02,14,04,57,994.55
2019,02,14,04,58,994.55
2019,02,14,04,59,994.55
2019,02,14,05,00,994.14
2019,02,14,05,01,994.14
2019,02,14,05,02,994.14
2019,02,14,05,03,994.14
2019,02,14,05,04,994.14
2019,02,14,05,05,994.14
2019,02,14,05,06,994.14
2019,02,14,05,07,994.14
2019,02,14,05,08,994.14
2019,02,14,05,09,994.14
2019,02,14,05,10,994.14
2019,02,14,05,11,994.14
2019,02,14,05,12,994.14
2019,02,14,05,13,994.14
2019,02,14,05,14,994.14
2019,02,14,05,15,994.07
2019,02,14,05,16,994.07
2019,02,14,05,17,994.07
2019,02,14,05,18,994.07
2019,02,14,05,19,994.07
2019,02,14,05,20,994.07
2019,02,14,05,21,994.07
2019,02,14,05,22,994.07
2019,02,14,05,23,994.07
2019,02,14,05,24,994.07
2019,02,14,05,25,994.07
2019,02,14,05,26,994.07
2019,02,14,05,27,994.07
2019,02,14,05,28,994.07
2019,02,14,05,29,994.05
2019,02,14,05,30,993.63
2019,02,14,05,31,993.63
2019,02,14,05,32,993.63
2019,02,14,05,33,993.63
2019,02,14,05,34,993.63
2019,02,14,05,35,993.63
2019,02,14,05,36,993.63
2019,02,14,05,37,993.63
2019,02,14,05,38,993.63
2019,02,14,05,39,993.63
2019,02,14,05,40,993.63
2019,02,14,05,41,993.63
2019,02,14,05,42,993.63
2019,02,14,05,43,993.63
2019,02,14,05,44,993.63
2019,02,14,05,45,993.50
2019,02,14,05,46,993.50
2019,02,14,05,47,993.50
2019,02,14,05,48,993.50
2019,02,14,05,49,993.50
2019,02,14,05,50,993.50
2019,02,14,05,51,993.50
2019,02,14,05,52,993.50
2019,02,14,05,53,993.50
2019,02,14,05,54,993.50
2019,02,14,05,55,993.50
2019,02,14,05,56,993.50
2019,02,14,05,57,993.50
2019,02,14,05,58,993.50
2019,02,14,05,59,993.50
2019,02,14,06,00,993.06
2019,02,14,06,01,993.06
2019,02,14,06,02,993.06
2019,02,14,06,03,993.06
2019,02,14,06,04,993.06
2019,02,14,06,05,993.06
2019,02,14,06,06,993.06
2019,02,14,06,07,993.06
2019,02,14,06,08,993.06
2019,02,14,06,09,993.06
2019,02,14,06,10,993.06
2019,02,14,06,11,993.06
2019,02,14,06,12,993.06
2019,02,14,06,13,993.06
2019,02,14,06,14,993.06
2019,02,14,06,15,992.52
2019,02,14,06,16,992.52
2019,02,14,06,17,992.52
2019,02,14,06,18,992.52
2019,02,14,06,19,992.52
2019,02,14,06,20,992.52
2019,02,14,06,21,992.52
2019,02,14,06,22,992.52
2019,02,14,06,23,992.52
2019,02,14,06,24,992.52
2019,02,14,06,25,992.52
2019,02,14,06,26,992.52
2019,02,14,06,27,992.52
2019,02,14,06,28,992.52
2019,02,14,06,29,992.50
2019,02,14,06,30,992.08
2019,02,14,06,31,992.08
2019,02,14,06,32,992.08
2019,02,14,06,33,992.08
2019,02,14,06,34,992.08
2019,02,14,06,35,992.08
2019,02,14,06,36,992.08
2019,02,14,06,37,992.08
2019,02,14,06,38,992.08
2019,02,14,06,39,992.08
2019,02,14,06,40,992.08
2019,02,14,06,41,992.08
2019,02,14,06,42,992.08
2019,02,14,06,43,992.08
2019,02,14,06,44,992.06
2019,02,14,06,45,991.74
2019,02,14,06,46,991.74
2019,02,14,06,47,991.74
2019,02,14,06,48,991.74
2019,02,14,06,49,991.74
2019,02,14,06,50,991.74
2019,02,14,06,51,991.74
2019,02,14,06,52,991.74
2019,02,14,06,53,991.74
2019,02,14,06,54,991.74
2019,02,14,06,55,991.74
2019,02,14,06,56,991.74
2019,02,14,06,57,991.74
2019,02,14,06,58,991.74
2019,02,14,06,59,991.73
2019,02,14,07,00,991.53
2019,02,14,07,01,991.53
2019,02,14,07,02,991.53
2019,02,14,07,03,991.53
2019,02,14,07,04,991.53
2019,02,14,07,05,991.53
2019,02,14,07,06,991.53
2019,02,14,07,07,991.53
2019,02,14,07,08,991.53
2019,02,14,07,09,991.53
2019,02,14,07,10,991.53
2019,02,14,07,11,991.53
2019,02,14,07,12,991.53
2019,02,14,07,13,991.53
2019,02,14,07,14,991.50
2019,02,14,07,15,990.99
2019,02,14,07,16,990.99
2019,02,14,07,17,990.99
2019,02,14,07,18,990.99
2019,02,14,07,19,990.99
2019,02,14,07,20,990.99
2019,02,14,07,21,990.99
2019,02,14,07,22,990.99
2019,02,14,07,23,990.99
2019,02,14,07,24,990.99
2019,02,14,07,25,990.99
2019,02,14,07,26,990.99
2019,02,14,07,27,990.99
2019,02,14,07,28,990.99
2019,02,14,07,29,990.97
2019,02,14,07,30,990.65
2019,02,14,07,31,990.65
2019,02,14,07,32,990.65
2019,02,14,07,33,990.65
2019,02,14,07,34,990.65
2019,02,14,07,35,990.65
2019,02,14,07,36,990.65
2019,02,14,07,37,990.65
2019,02,14,07,38,990.65
2019,02,14,07,39,990.65
2019,02,14,07,40,990.65
2019,02,14,07,41,990.65
2019,02,14,07,42,990.65
2019,02,14,07,43,990.65
2019,02,14,07,44,990.65
2019,02,14,07,45,990.49
2019,02,14,07,46,990.49
2019,02,14,07,47,990.49
2019,02,14,07,48,990.49
2019,02,14,07,49,990.49
2019,02,14,07,50,990.49
2019,02,14,07,51,990.49
2019,02,14,07,52,990.49
2019,02,14,07,53,990.49
2019,02,14,07,54,990.49
2019,02,14,07,55,990.49
2019,02,14,07,56,990.49
2019,02,14,07,57,990.49
2019,02,14,07,58,990.49
2019,02,14,07,59,990.48
2019,02,14,08,00,990.38
2019,02,14,08,01,990.38
2019,02,14,08,02,990.38
2019,02,14,08,03,990.38
2019,02,14,08,04,990.38
2019,02,14,08,05,990.38
2019,02,14,08,06,990.38
2019,02,14,08,07,990.38
2019,02,14,08,08,990.38
2019,02,14,08,09,990.38
2019,02,14,08,10,990.38
2019,02,14,08,11,990.38
2019,02,14,08,12,990.38
2019,02,14,08,13,990.38
2019,02,14,08,14,990.38
2019,02,14,08,15,990.32
2019,02,14,08,16,990.32
2019,02,14,08,17,990.32
2019,02,14,08,18,990.32
2019,02,14,08,19,990.32
2019,02,14,08,20,990.32
2019,02,14,08,21,990.32
2019,02,14,08,22,990.32
2019,02,14,08,23,990.32
2019,02,14,08,24,990.32
2019,02,14,08,25,990.32
2019,02,14,08,26,990.32
2019,02,14,08,27,990.32
2019,02,14,08,28,990.32
2019,02,14,08,29,990.30
2019,02,14,08,30,989.98
2019,02,14,08,31,989.98
2019,02,14,08,32,989.98
2019,02,14,08,33,989.98
2019,02,14,08,34,989.98
2019,02,14,08,35,989.98
2019,02,14,08,36,989.98
2019,02,14,08,37,989.98
2019,02,14,08,38,989.98
2019,02,14,08,39,989.98
2019,02,14,08,40,989.98
2019,02,14,08,41,989.98
2019,02,14,08,42,989.98
2019,02,14,08,43,989.98
2019,02,14,08,44,989.98
2019,02,14,08,45,989.91
2019,02,14,08,46,989.91
2019,02,14,08,47,989.91
2019,02,14,08,48,989.91
2019,02,14,08,49,989.91
2019,02,14,08,50,989.91
2019,02,14,08,51,989.91
2019,02,14,08,52,989.91
2019,02,14,08,53,989.91
2019,02,14,08,54,989.91
2019,02,14,08,55,989.91
2019,02,14,08,56,989.91
2019,02,14,08,57,989.91
2019,02,14,08,58,989.91
2019,02,14,08,59,989.91
2019,02,14,09,00,989.84
2019,02,14,09,01,989.84
2019,02,14,09,02,989.84
2019,02,14,09,03,989.84
2019,02,14,09,04,989.84
2019,02,14,09,05,989.84
2019,02,14,09,06,989.84
2019,02,14,09,07,989.84
2019,02,14,09,08,989.84
2019,02,14,09,09,989.84
2019,02,14,09,10,989.84
2019,02,14,09,11,989.84
2019,02,14,09,12,989.84
2019,02,14,09,13,989.84
2019,02,14,09,14,989.84
2019,02,14,09,15,989.74
2019,02,14,09,16,989.74
2019,02,14,09,17,989.74
2019,02,14,09,18,989.74
2019,02,14,09,19,989.74
2019,02,14,09,20,989.74
2019,02,14,09,21,989.74
2019,02,14,09,22,989.74
2019,02,14,09,23,989.74
2019,02,14,09,24,989.74
2019,02,14,09,25,989.74
2019,02,14,09,26,989.74
2019,02,14,09,27,989.74
2019,02,14,09,28,989.74
2019,02,14,09,29,989.72
2019,02,14,09,30,989.44
2019,02,14,09,31,989.44
2019,02,14,09,32,989.44
2019,02,14,09,33,989.44
2019,02,14,09,34,989.44
2019,02,14,09,35,989.44
2019,02,14,09,36,989.44
2019,02,14,09,37,989.44
2019,02,14,09,38,989.44
2019,02,14,09,39,989.44
2019,02,14,09,40,989.44
2019,02,14,09,41,989.44
2019,02,14,09,42,989.44
2019,02,14,09,43,989.44
2019,02,14,09,44,989.44
2019,02,14,09,45,989.33
2019,02,14,09,46,989.33
2019,02,14,09,47,989.33
2019,02,14,09,48,989.33
2019,02,14,09,49,989.33
2019,02,14,09,50,989.33
2019,02,14,09,51,989.33
2019,02,14,09,52,989.33
2019,02,14,09,53,989.33
2019,02,14,09,54,989.33
2019,02,14,09,55,989.33
2019,02,14,09,56,989.33
2019,02,14,09,57,989.33
2019,02,14,09,58,989.33
2019,02,14,09,59,989.33
2019,02,14,10,00,989.00
2019,02,14,10,01,989.00
2019,02,14,10,02,989.00
2019,02,14,10,03,989.00
2019,02,14,10,04,989.00
2019,02,14,10,05,989.00
2019,02,14,10,06,989.00
2019,02,14,10,07,989.00
2019,02,14,10,08,989.00
2019,02,14,10,09,989.00
2019,02,14,10,10,989.00
2019,02,14,10,11,989.00
2019,02,14,10,12,989.00
2019,02,14,10,13,989.00
2019,02,14,10,14,989.00
2019,02,14,10,15,988.59
2019,02,14,10,16,988.59
2019,02,14,10,17,988.59
2019,02,14,10,18,988.59
2019,02,14,10,19,988.59
2019,02,14,10,20,988.59
2019,02,14,10,21,988.59
2019,02,14,10,22,988.59
2019,02,14,10,23,988.59
2019,02,14,10,24,988.59
2019,02,14,10,25,988.59
2019,02,14,10,26,988.59
2019,02,14,10,27,988.59
2019,02,14,10,28,988.59
2019,02,14,10,29,988.59
2019,02,14,10,30,988.55
2019,02,14,10,31,988.55
2019,02,14,10,32,988.55
2019,02,14,10,33,988.55
2019,02,14,10,34,988.55
2019,02,14,10,35,988.55
2019,02,14,10,36,988.55
2019,02,14,10,37,988.55
2019,02,14,10,38,988.55
2019,02,14,10,39,988.55
2019,02,14,10,40,988.55
2019,02,14,10,41,988.55
2019,02,14,10,42,988.55
2019,02,14,10,43,988.55
2019,02,14,10,44,988.55
2019,02,14,10,45,988.42
2019,02,14,10,46,988.42
2019,02,14,10,47,988.42
2019,02,14,10,48,988.42
2019,02,14,10,49,988.42
2019,02,14,10,50,988.42
2019,02,14,10,51,988.42
2019,02,14,10,52,988.42
2019,02,14,10,53,988.42
2019,02,14,10,54,988.42
2019,02,14,10,55,988.42
2019,02,14,10,56,988.42
2019,02,14,10,57,988.42
2019,02,14,10,58,988.42
2019,02,14,10,59,988.42
2019,02,14,11,00,988.39
2019,02,14,11,01,988.39
2019,02,14,11,02,988.39
2019,02,14,11,03,988.39
2019,02,14,11,04,988.39
2019,02,14,11,05,988.39
2019,02,14,11,06,988.39
2019,02,14,11,07,988.39
2019,02,14,11,08,988.39
2019,02,14,11,09,988.39
2019,02,14,11,10,988.39
2019,02,14,11,11,988.39
2019,02,14,11,12,988.39
2019,02,14,11,13,988.39
2019,02,14,11,14,988.39
2019,02,14,11,15,988.15
2019,02,14,11,16,988.15
2019,02,14,11,17,988.15
2019,02,14,11,18,988.15
2019,02,14,11,19,988.15
2019,02,14,11,20,988.15
2019,02,14,11,21,988.15
2019,02,14,11,22,988.15
2019,02,14,11,23,988.15
2019,02,14,11,24,988.15
2019,02,14,11,25,988.15
2019,02,14,11,26,988.15
2019,02,14,11,27,988.15
2019,02,14,11,28,988.15
2019,02,14,11,29,988.15
2019,02,14,11,30,987.91
2019,02,14,11,31,987.91
2019,02,14,11,32,987.91
2019,02,14,11,33,987.91
2019,02,14,11,34,987.91
2019,02,14,11,35,987.91
2019,02,14,11,36,987.91
2019,02,14,11,37,987.91
2019,02,14,11,38,987.91
2019,02,14,11,39,987.91
2019,02,14,11,40,987.91
2019,02,14,11,41,987.91
2019,02,14,11,42,987.91
2019,02,14,11,43,987.91
2019,02,14,11,44,987.91
2019,02,14,11,45,987.51
2019,02,14,11,46,987.51
2019,02,14,11,47,987.51
2019,02,14,11,48,987.51
2019,02,14,11,49,987.51
2019,02,14,11,50,987.51
2019,02,14,11,51,987.51
2019,02,14,11,52,987.51
2019,02,14,11,53,987.51
2019,02,14,11,54,987.51
2019,02,14,11,55,987.51
2019,02,14,11,56,987.51
2019,02,14,11,57,987.51
2019,02,14,11,58,987.51
2019,02,14,11,59,987.51
2019,02,14,12,00,987.40
2019,02,14,12,01,987.40
2019,02,14,12,02,987.40
2019,02,14,12,03,987.40
2019,02,14,12,04,987.40
2019,02,14,12,05,987.40
2019,02,14,12,06,987.40
2019,02,14,12,07,987.40
2019,02,14,12,08,987.40
2019,02,14,12,09,987.40
2019,02,14,12,10,987.40
2019,02,14,12,11,987.40
2019,02,14,12,12,987.40
2019,02,14,12,13,987.40
2019,02,14,12,14,987.40
2019,02,14,12,15,986.96
2019,02,14,12,16,986.96
2019,02,14,12,17,986.96
2019,02,14,12,18,986.96
2019,02,14,12,19,986.96
2019,02,14,12,20,986.96
2019,02,14,12,21,986.96
2019,02,14,12,22,986.96
2019,02,14,12,23,986.96
2019,02,14,12,24,986.96
2019,02,14,12,25,986.96
2019,02,14,12,26,986.96
2019,02,14,12,27,986.96
2019,02,14,12,28,986.96
2019,02,14,12,29,986.95
2019,02,14,12,30,986.79
2019,02,14,12,31,986.79
2019,02,14,12,32,986.79
2019,02,14,12,33,986.79
2019,02,14,12,34,986.79
2019,02,14,12,35,986.79
2019,02,14,12,36,986.79
2019,02,14,12,37,986.79
2019,02,14,12,38,986.79
2019,02,14,12,39,986.79
2019,02,14,12,40,986.79
2019,02,14,12,41,986.79
2019,02,14,12,42,986.79
2019,02,14,12,43,986.79
2019,02,14,12,44,986.77
2019,02,14,12,45,986.32
2019,02,14,12,46,986.32
2019,02,14,12,47,986.32
2019,02,14,12,48,986.32
2019,02,14,12,49,986.32
2019,02,14,12,50,986.32
2019,02,14,12,51,986.32
2019,02,14,12,52,986.32
2019,02,14,12,53,986.32
2019,02,14,12,54,986.32
2019,02,14,12,55,986.32
2019,02,14,12,56,986.32
2019,02,14,12,57,986.32
2019,02,14,12,58,986.32
2019,02,14,12,59,986.32
2019,02,14,13,00,986.12
2019,02,14,13,01,986.12
2019,02,14,13,02,986.12
2019,02,14,13,03,986.12
2019,02,14,13,04,986.12
2019,02,14,13,05,986.12
2019,02,14,13,06,986.12
2019,02,14,13,07,986.12
2019,02,14,13,08,986.12
2019,02,14,13,09,986.12
2019,02,14,13,10,986.12
2019,02,14,13,11,986.12
2019,02,14,13,12,986.12
2019,02,14,13,13,986.12
2019,02,14,13,14,986.12
2019,02,14,13,15,985.68
2019,02,14,13,16,985.68
2019,02,14,13,17,985.68
2019,02,14,13,18,985.68
2019,02,14,13,19,985.68
2019,02,14,13,20,985.68
2019,02,14,13,21,985.68
2019,02,14,13,22,985.68
2019,02,14,13,23,985.68
2019,02,14,13,24,985.68
2019,02,14,13,25,985.68
2019,02,14,13,26,985.68
2019,02,14,13,27,985.68
2019,02,14,13,28,985.68
2019,02,14,13,29,985.68
2019,02,14,13,30,985.44
2019,02,14,13,31,985.44
2019,02,14,13,32,985.44
2019,02,14,13,33,985.44
2019,02,14,13,34,985.44
2019,02,14,13,35,985.44
2019,02,14,13,36,985.44
2019,02,14,13,37,985.44
2019,02,14,13,38,985.44
2019,02,14,13,39,985.44
2019,02,14,13,40,985.44
2019,02,14,13,41,985.44
2019,02,14,13,42,985.44
2019,02,14,13,43,985.44
2019,02,14,13,44,985.44
2019,02,14,13,45,985.34
2019,02,14,13,46,985.34
2019,02,14,13,47,985.34
2019,02,14,13,48,985.34
2019,02,14,13,49,985.34
2019,02,14,13,50,985.34
2019,02,14,13,51,985.34
2019,02,14,13,52,985.34
2019,02,14,13,53,985.34
2019,02,14,13,54,985.34
2019,02,14,13,55,985.34
2019,02,14,13,56,985.34
2019,02,14,13,57,985.34
2019,02,14,13,58,985.34
2019,02,14,13,59,985.34
2019,02,14,14,00,985.17
2019,02,14,14,01,985.17
2019,02,14,14,02,985.17
2019,02,14,14,03,985.17
2019,02,14,14,04,985.17
2019,02,14,14,05,985.17
2019,02,14,14,06,985.17
2019,02,14,14,07,985.17
2019,02,14,14,08,985.17
2019,02,14,14,09,985.17
2019,02,14,14,10,985.17
2019,02,14,14,11,985.17
2019,02,14,14,12,985.17
2019,02,14,14,13,985.17
2019,02,14,14,14,985.17
2019,02,14,14,15,984.80
2019,02,14,14,16,984.80
2019,02,14,14,17,984.80
2019,02,14,14,18,984.80
2019,02,14,14,19,984.80
2019,02,14,14,20,984.80
2019,02,14,14,21,984.80
2019,02,14,14,22,984.80
2019,02,14,14,23,984.80
2019,02,14,14,24,984.80
2019,02,14,14,25,984.80
2019,02,14,14,26,984.80
2019,02,14,14,27,984.80
2019,02,14,14,28,984.80
2019,02,14,14,29,984.80
2019,02,14,14,30,985.03
2019,02,14,14,31,985.03
2019,02,14,14,32,985.03
2019,02,14,14,33,985.03
2019,02,14,14,34,985.03
2019,02,14,14,35,985.03
2019,02,14,14,36,985.03
2019,02,14,14,37,985.03
2019,02,14,14,38,985.03
2019,02,14,14,39,985.03
2019,02,14,14,40,985.03
2019,02,14,14,41,985.03
2019,02,14,14,42,985.03
2019,02,14,14,43,985.03
2019,02,14,14,44,985.03
2019,02,14,14,45,985.17
2019,02,14,14,46,985.17
2019,02,14,14,47,985.17
2019,02,14,14,48,985.17
2019,02,14,14,49,985.17
2019,02,14,14,50,985.17
2019,02,14,14,51,985.17
2019,02,14,14,52,985.17
2019,02,14,14,53,985.17
2019,02,14,14,54,985.17
2019,02,14,14,55,985.17
2019,02,14,14,56,985.17
2019,02,14,14,57,985.17
2019,02,14,14,58,985.17
2019,02,14,14,59,985.17
2019,02,14,15,00,985.24
2019,02,14,15,01,985.24
2019,02,14,15,02,985.24
2019,02,14,15,03,985.24
2019,02,14,15,04,985.24
2019,02,14,15,05,985.24
2019,02,14,15,06,985.24
2019,02,14,15,07,985.24
2019,02,14,15,08,985.24
2019,02,14,15,09,985.24
2019,02,14,15,10,985.24
2019,02,14,15,11,985.24
2019,02,14,15,12,985.24
2019,02,14,15,13,985.24
2019,02,14,15,14,985.24
2019,02,14,15,15,985.30
2019,02,14,15,16,985.30
2019,02,14,15,17,985.30
2019,02,14,15,18,985.30
2019,02,14,15,19,985.30
2019,02,14,15,20,985.30
2019,02,14,15,21,985.30
2019,02,14,15,22,985.30
2019,02,14,15,23,985.30
2019,02,14,15,24,985.30
2019,02,14,15,25,985.30
2019,02,14,15,26,985.30
2019,02,14,15,27,985.30
2019,02,14,15,28,985.30
2019,02,14,15,29,985.30
2019,02,14,15,30,985.27
2019,02,14,15,31,985.27
2019,02,14,15,32,985.27
2019,02,14,15,33,985.27
2019,02,14,15,34,985.27
2019,02,14,15,35,985.27
2019,02,14,15,36,985.27
2019,02,14,15,37,985.27
2019,02,14,15,38,985.27
2019,02,14,15,39,985.27
2019,02,14,15,40,985.27
2019,02,14,15,41,985.27
2019,02,14,15,42,985.27
2019,02,14,15,43,985.27
2019,02,14,15,44,985.27
2019,02,14,15,45,985.57
2019,02,14,15,46,985.57
2019,02,14,15,47,985.57
2019,02,14,15,48,985.57
2019,02,14,15,49,985.57
2019,02,14,15,50,985.57
2019,02,14,15,51,985.57
2019,02,14,15,52,985.57
2019,02,14,15,53,985.57
2019,02,14,15,54,985.57
2019,02,14,15,55,985.57
2019,02,14,15,56,985.57
2019,02,14,15,57,985.57
2019,02,14,15,58,985.57
2019,02,14,15,59,985.57
2019,02,14,16,00,985.73
2019,02,14,16,01,985.74
2019,02,14,16,02,985.74
2019,02,14,16,03,985.74
2019,02,14,16,04,985.74
2019,02,14,16,05,985.74
2019,02,14,16,06,985.74
2019,02,14,16,07,985.74
2019,02,14,16,08,985.74
2019,02,14,16,09,985.74
2019,02,14,16,10,985.74
2019,02,14,16,11,985.74
2019,02,14,16,12,985.74
2019,02,14,16,13,985.74
2019,02,14,16,14,985.74
2019,02,14,16,15,985.68
2019,02,14,16,16,985.68
2019,02,14,16,17,985.68
2019,02,14,16,18,985.68
2019,02,14,16,19,985.68
2019,02,14,16,20,985.68
2019,02,14,16,21,985.68
2019,02,14,16,22,985.68
2019,02,14,16,23,985.68
2019,02,14,16,24,985.68
2019,02,14,16,25,985.68
2019,02,14,16,26,985.68
2019,02,14,16,27,985.68
2019,02,14,16,28,985.68
2019,02,14,16,29,985.68
2019,02,14,16,30,985.68
2019,02,14,16,31,985.68
2019,02,14,16,32,985.68
2019,02,14,16,33,985.68
2019,02,14,16,34,985.68
2019,02,14,16,35,985.68
2019,02,14,16,36,985.68